Location: Bois de la Silve
(44.4667°N, 6.7833°E)
Time: 10:54:34
(UTC+00:00)

Cosmos 1818 - Pass Details

Date: 14 July 2020
Orbit: 777 x 796 km, 65.0° (Epoch: 05 August)

Event Time Altitude Azimuth Distance (km) Brightness Sun altitude
Rises 02:59:14 0° 323° (NW) 3,308 6.9 -9.6°
Reaches altitude 10° 03:01:41 10° 321° (NW) 2,374 6.1 -9.3°
Maximum altitude 03:07:06 68° 239° (WSW) 856 3.5 -8.6°
Drops below altitude 10° 03:12:29 10° 158° (SSE) 2,354 5.8 -7.9°
Sets 03:14:54 0° 155° (SSE) 3,277 6.6 -7.6°
